Regional Weather Roundup
Issued by NWS

Home | Current Version | Previous Version | Graphics & Text | Print | Product List | Glossary On
Versions: 1 2 3 4 5 6 7 8 9 10 11 12 13 14 15 16 17 18 19 20 21 22 23 24 25 26 27 28 29 30 31 32 33 34 35 36 37 38 39 40 41 42 43 44 45 46 47 48 49 50
000
ASUS45 KTFX 220319
RWRMT
MONTANA HOURLY WEATHER ROUNDUP
NATIONAL WEATHER SERVICE GREAT FALLS MT
919 PM MDT MON JUL 21 2014

NOTE: "FAIR" INDICATES FEW OR NO CLOUDS BELOW 12000 FEET WITH NO
SIGNIFICANT WEATHER AND/OR OBSTRUCTIONS TO VISIBILITY.

* THESE STATIONS ARE NOT UNDER NWS QUALITY CONTROL. THEY DO NOT
   REPORT WEATHER SUCH AS PRECIPITATION OR FOG.

MTZ001>007-043-220400-
WEST OF THE DIVIDE
CITY           SKY/WX    TMP DP  RH WIND       PRES   REMARKS
KALISPELL      CLEAR     70  39  32 W6        30.00R
MISSOULA       PTCLDY    75  28  18 NW9       30.03R
BUTTE          CLOUDY    72  50  46 N3        30.13R
MULLAN PASS    PTCLDY    55  36  49 SW5       30.18R
* ESSEX        N/A       59  49  70 N/A        N/A
* LINCOLN      N/A       76  34  22 W4         N/A
* LOOKOUT PASS N/A       58  42  55 S2         N/A
* POLSON       N/A       66  38  36 NW1G6      N/A
* RONAN APT    CLEAR     75  46  36 N/A        N/A
* SEELEY LAKE  N/A       67  46  47 N3G9       N/A
* THOMP F APT  CLEAR     68  43  40 N/A        N/A
* YAAK HILL    N/A       69  41  36 S2         N/A
$$

MTZ008-052>055-220400-
SOUTHWEST MONTANA
CITY           SKY/WX    TMP DP  RH WIND       PRES   REMARKS
BOZEMAN        CLOUDY    70  55  59 CALM      30.08R
DILLON         CLOUDY    70  45  41 S9        30.09R
* THREE FORKS  CLOUDY    72  72 100 N/A        N/A
* BOULDER HILL N/A       66  45  47 N1         N/A
* MONIDA PASS  N/A       65  40  40 SW4        N/A
* RAYNOLDS PAS N/A       61  42  50 SE13       N/A
* WHITEHALL    N/A       70  58  66 NE2        N/A
* WISE RIVER   N/A       74  46  37 W9G15      N/A
$$

MTZ009>010-012-014-046-048-049-054-220400-
EAST SLOPES AND CENTRAL MONTANA
CITY           SKY/WX    TMP DP  RH WIND       PRES   REMARKS
CUT BANK       CLEAR     66  46  49 N12       30.07R
GREAT FALLS    PTCLDY    68  46  45 N6        30.04R
HELENA         MOCLDY    75  52  45 VRB5      30.03R
MALMSTROM AFB  CLEAR     73  46  38 N8        30.04R
* CONRAD       PTCLDY    68  54  61 N/A        N/A
* DEARBORN     N/A       76  30  18 SE1        N/A
* EAST GLACIER N/A       65  41  42 W4         N/A
* MONARCH      N/A       67  36  32 NW4G9      N/A
* PENDROY      N/A       68  39  35 NW8        N/A
* ROGERS PASS  N/A       60  39  46 NW3        N/A
* SAINT MARY   N/A       71  36  28 W4G11      N/A
* SWEET GRASS  N/A       65  56  73 NE12       N/A
* WHITE SULPH  N/A       66  52  61 S1G7       N/A
$$

MTZ011-013-016-021-035-040-045-047-050-051-220400-
NORTH CENTRAL MONTANA
CITY           SKY/WX    TMP DP  RH WIND       PRES   REMARKS
HAVRE          PTCLDY    73  54  51 E7        29.99R
LEWISTOWN      PTCLDY    70  57  64 SW9       30.06R
* FORT BENTON  CLEAR     75  45  34 NW3       30.00R
* CHESTER      N/A       70  49  47 NE10G15    N/A
* DENTON       N/A       73  53  50 S1         N/A
* GEYSER       N/A       73  43  34 NW4        N/A
* JUDITH GAP   N/A       64  60  87 N/A        N/A
* LOMA         N/A       78  45  31 NW6G11     N/A
$$

MTZ017>020-022>027-061-062-220400-
NORTHEAST MONTANA
CITY           SKY/WX    TMP DP  RH WIND       PRES   REMARKS
GLASGOW        CLOUDY    72  54  53 E5        29.97R
GLENDIVE       CLEAR     70  55  59 N9        30.01R
JORDAN         CLOUDY    77  54  45 E6        29.98R
SIDNEY         CLEAR     66  57  73 NW3       30.00R
WOLF POINT     PTCLDY    72  61  68 CALM      29.99R
* BEAVER HILL  N/A       70  58  66 N3         N/A
* CIRCLE       N/A       70  62  76 N/A        N/A
* LINDSAY DVD  N/A       67  58  73 N8         N/A
* NAVAJO       N/A       66  60  81 SE2        N/A
$$

MTZ028>042-056>058-220400-
SOUTHCENTRAL AND SOUTHEAST MONTANA
CITY           SKY/WX    TMP DP  RH WIND       PRES   REMARKS
BAKER          PTCLDY    70  55  59 CALM      30.01R
BILLINGS       CLOUDY    70  54  57 S3        30.06R
LIVINGSTON     CLOUDY    72  48  43 SW9       30.10R
MILES CITY     PTCLDY    75  55  50 NE8       29.97R
* LAUREL APT   CLOUDY    66  48  52 N/A        N/A
* ROUNDUP APT  CLOUDY    64  59  84 N/A        N/A
* ALZADA       N/A       77  57  50 NW6        N/A
* HYSHAM       N/A       67  52  59 E2         N/A
* LAME DEER    N/A       73  51  46 NW7        N/A
* REED POINT   N/A       70  54  57 E4         N/A
* ROSCOE HILL  N/A       65  46  50 SW1G6      N/A
$$

REGIONAL REPORTS...DAKOTAS
CITY           SKY/WX    TMP DP  RH WIND       PRES   REMARKS
WILLISTON      MOCLDY    72  57  59 E5        29.96R
DICKINSON      PTCLDY    63  61  93 NE7       29.96R
CROSBY         N/A       63  63 100 N6        29.99R
TIOGA          PTCLDY    61  61 100 CALM      30.00R
WATFORD CITY   PTCLDY    64  63  97 E3        29.97R
BISMARCK       CLOUDY    66  63  90 N6        29.88R
GRAND FORKS    TSTM      66  66 100 N31G41    29.80R VSB 2
FARGO          LGT RAIN  68  64  87 W6        29.75S VSB 3
BUFFALO SD     PTCLDY    72  63  73 N14       29.94R
RAPID CITY     PTCLDY    75  55  50 N13       29.95R
$$

REGIONAL REPORTS...WYOMING/IDAHO/WASHINGTON
CITY           SKY/WX    TMP DP  RH WIND       PRES   REMARKS
GILLETTE       PTCLDY    70  55  59 N10G18    30.04R
SHERIDAN       MOCLDY    70  57  64 W17G23    30.11R
CODY           CLOUDY    70  46  42 CALM      30.15R
YELLOWSTONE LA CLOUDY    54  48  80 CALM      30.39R
SALMON         MOCLDY    75  46  36 SE5       29.99S
MULLAN PASS    PTCLDY    55  36  49 SW5       30.18S
SAND POINT     CLOUDY    66  52  61 N5        30.01S
SPOKANE        CLOUDY    75  36  24 E3        29.99S
$$

REGIONAL REPORTS...ALBERTA
CITY           SKY/WX    TMP DP  RH WIND       PRES   REMARKS
CALGARY        FAIR      61  50  67 E7        30.07R
LETHBRIDGE     MOCLDY    63  55  75 E7        30.06R
MEDICINE HAT   FAIR      66  50  56 N7        30.03R
EDMONTON       FAIR      64  52  65 S6        30.01R
WATERTON GATE  N/A       63  55  75 N3         N/A
CARDSTON       N/A       63  57  81 NE3        N/A
MILK RIVER     N/A       63  52  68 NE8        N/A
$$

REGIONAL REPORTS...SASKATCHEWAN
CITY           SKY/WX    TMP DP  RH WIND       PRES   REMARKS
SWIFT CURRENT  MOCLDY    59  57  93 E8        30.00R
REGINA         MOCLDY    66  57  73 E3        29.98R
VAL MARIE      N/A       61  57  87 N8         N/A
ASSINIBOIA     N/A       66  63  90 NE2        N/A
CORONACH       N/A       66  61  84 SE5        N/A

$$



USA.gov is the U.S. government's official web portal to all federal, state and local government web resources and services.